TimeCST,TemperatureF,Dew PointF,Humidity,Sea Level PressureIn,VisibilityMPH,Wind Direction,Wind SpeedMPH,Gust SpeedMPH,PrecipitationIn,Events,Conditions,WindDirDegrees,DateUTC
12:55 AM,2.7,-1.3,84,30.43,10.0,Calm,Calm,-,N/A,,Clear,0,2011-12-10 06:55:00
1:55 AM,2.7,-0.2,88,30.43,10.0,Calm,Calm,-,N/A,,Clear,0,2011-12-10 07:55:00
2:55 AM,2.7,0.7,91,30.43,10.0,Calm,Calm,-,N/A,,Clear,0,2011-12-10 08:55:00
3:55 AM,6.1,0.5,78,30.43,10.0,SW,4.6,-,N/A,,Clear,220,2011-12-10 09:55:00
4:55 AM,7.0,-0.0,73,30.44,10.0,Variable,3.5,-,N/A,,Clear,0,2011-12-10 10:55:00
5:55 AM,6.4,0.1,75,30.45,10.0,SSW,3.5,-,N/A,,Clear,200,2011-12-10 11:55:00
6:55 AM,5.7,0.7,80,30.45,10.0,SSE,3.5,-,N/A,,Clear,160,2011-12-10 12:55:00
7:55 AM,7.3,0.9,75,30.45,10.0,Variable,3.5,-,N/A,,Clear,0,2011-12-10 13:55:00
8:55 AM,12.2,3.2,67,30.44,10.0,Calm,Calm,-,N/A,,Partly Cloudy,0,2011-12-10 14:55:00
9:55 AM,17.6,5.0,58,30.45,10.0,WSW,6.9,-,N/A,,Partly Cloudy,240,2011-12-10 15:55:00
10:55 AM,23.0,3.2,43,30.40,10.0,SSW,5.8,-,N/A,,Partly Cloudy,200,2011-12-10 16:55:00
11:55 AM,24.8,3.2,40,30.38,10.0,Variable,5.8,-,N/A,,Mostly Cloudy,0,2011-12-10 17:55:00
12:55 PM,26.6,6.8,43,30.37,10.0,SW,12.7,-,N/A,,Overcast,230,2011-12-10 18:55:00
1:55 PM,28.4,10.4,47,30.33,10.0,SSW,15.0,19.6,N/A,,Mostly Cloudy,210,2011-12-10 19:55:00
2:55 PM,28.4,14.0,55,30.32,10.0,SW,11.5,18.4,N/A,,Scattered Clouds,220,2011-12-10 20:55:00
3:55 PM,26.6,14.0,59,30.31,10.0,South,9.2,-,N/A,,Partly Cloudy,190,2011-12-10 21:55:00
4:55 PM,24.8,13.8,63,30.31,10.0,SSW,8.1,-,N/A,,Clear,200,2011-12-10 22:55:00
5:55 PM,24.1,13.8,65,30.31,10.0,South,5.8,-,N/A,,Clear,190,2011-12-10 23:55:00
6:55 PM,23.9,15.8,71,30.31,10.0,SSW,11.5,-,N/A,,Clear,210,2011-12-11 00:55:00
7:55 PM,23.7,18.3,80,30.30,10.0,SSW,10.4,-,N/A,,Clear,200,2011-12-11 01:55:00
8:55 PM,24.1,21.0,88,30.30,10.0,Variable,6.9,-,N/A,,Clear,0,2011-12-11 02:55:00
9:55 PM,24.4,22.1,91,30.28,10.0,SSW,11.5,18.4,N/A,,Clear,210,2011-12-11 03:55:00
10:55 PM,24.8,22.8,92,30.28,10.0,SSW,9.2,-,N/A,,Clear,200,2011-12-11 04:55:00
11:55 PM,24.8,23.5,95,30.26,10.0,Variable,5.8,-,N/A,,Clear,0,2011-12-11 05:55:00